Location: Sungai Bunut
(2.6333°N, 113.7333°E)
Time: 11:17:21
(UTC+00:00)

Ariane H10 - Pass Details

Date: 16 October 2021
Orbit: 494 x 35386 km, 6.6° (Epoch: 29 November)

Event Time Altitude Azimuth Distance (km) Brightness Sun altitude
Rises 11:57:58 0° 276° (W) 6,283 8.9 -26.9°
Reaches altitude 10° 12:03:55 10° 280° (W) 3,439 7.2 -28.4°
Enters shadow 12:09:01 42° 308° (NW) 974 3.7 -29.6°
